[[{"header":{"parameterUnit":"m.s-1","parameterCategory":1,"la1":30.2991,"la2":30.254,"lo1":-89.0895,"lo2":-89.0444,"dy":0.0017,"dx":0.0017,"nx":28,"ny":28,"refTime":"2023-08-25T03:00:00:Z","depth":0,"parameterNumber":2,"parameterNumberName":"U-component_of_WINDS"},"data":[0,0,0,0,0,0,0,0,0,0,0,0,0,0,0,0,0,0,0,0,0,0,0,0,0,0,0,0,0,0,0,0,0,0,0,0,0,0,0,0,0,0,0,0,0,0,0,0,0,0,0,0,0,0,0,0,0,0,-1.0454,-1.0452,0,-1.0295,-1.0293,-1.0291,-1.018,-1.0179,-1.0178,-1.0178,-1.0013,-1.0009,-1.0006,0,0,0,0,0,0,0,0,0,0,0,0,0,-1.0661,-1.0658,-1.0454,-1.0452,-1.045,-1.0295,-1.0293,-1.0291,-1.018,-1.0179,-1.0178,-1.0177,-1.0014,-1.001,-1.0005,0,0,0,0,0,0,0,0,0,0,0,0,0,-1.0544,-1.0657,-1.0454,-1.0376,-1.0368,-1.0296,-1.0293,-1.029,-1.018,-1.0179,-1.0178,-1.0177,-1.0015,-1.001,-1.0005,-0.9997,0,0,-0.9988,-0.9986,0,0,0,0,0,0,0,0,-1.055,-1.0536,-1.039,-1.0381,-1.0372,-1.0256,-1.0305,-1.0192,-1.0181,-1.0251,-1.0178,-1.0176,-1.0095,-1.0083,-1.0056,-0.999,-0.9982,-0.9988,-0.9985,-0.9982,-0.9981,0,0,0,0,0,0,0,-1.0559,-1.0542,-1.0391,-1.0388,-1.0377,-1.0349,-1.0331,-1.0283,-1.0182,-1.0245,-1.0237,-1.022,-1.0089,-1.0061,-1.0051,-0.998,-0.9988,-0.9983,-0.998,-0.9978,-0.9901,-0.9903,0,0,0,0,0,0,-1.0579,-1.055,-1.0396,-1.0386,-1.046,-1.0346,-1.0326,-1.0294,-1.0182,-1.0164,-1.0221,-1.0215,-1.0071,-1.0057,-1.0045,-1.0029,-0.9982,-0.9977,-0.9974,-0.99,-0.9902,-0.9903,0,0,0,0,0,0,-1.0584,-1.0567,-1.0402,-1.0466,-1.0443,-1.0344,-1.031,-1.0292,-1.0263,-1.0164,-1.0145,-1.0211,-1.0069,-1.0052,-1.001,-1.0022,-0.9975,-0.997,-0.9899,-0.9901,-0.9902,-0.9999,0,0,0,0,0,0,-1.0591,-1.0569,-1.0565,-1.0466,-1.044,-1.0371,-1.031,-1.029,-1.0255,-1.0246,-1.0149,-1.0132,-1.0067,-1.0019,-1.0005,-1.0014,-0.9966,-0.9897,-0.99,-0.9902,-0.9994,-1.0004,-1.0012,0,0,0,0,0,-1.0598,-1.0598,-1.0566,-1.0548,-1.0433,-1.0372,-1.0357,-1.0283,-1.0256,-1.0251,-1.0188,-1.0135,-1.0023,-1.0016,-0.9999,-1.0006,-0.9896,-0.9899,-0.9902,-0.999,-1.0002,-1.0012,0,0,0,0,0,0,-1.0699,-1.0583,-1.0546,-1.0514,-1.0454,-1.0354,-1.0345,-1.0297,-1.0243,-1.0236,-1.0146,-1.0125,-1.0093,-1.0045,-1.0039,-0.9994,-0.9953,-0.9953,-1.0026,-1.0037,-1.0045,-1.0058,-0.9961,0,0,0,0,0,-1.0718,-1.0679,-1.0579,-1.056,-1.0532,-1.0445,-1.0415,-1.0363,-1.0297,-1.0271,-1.0204,-1.0142,-1.0092,-1.0062,-1.0011,-0.9987,-0.9965,-0.9984,-0.9993,-1.0,-1.0001,-0.9986,-0.9994,-0.9912,-0.9912,-0.9912,0,0,-1.0756,-1.0688,-1.0668,-1.0579,-1.0526,-1.0488,-1.0424,-1.0385,-1.0355,-1.0265,-1.0222,-1.0171,-1.0095,-1.0063,-1.0045,-1.0022,-1.0019,-1.0004,-1.0011,-1.0007,-0.999,-0.9998,-1.0005,-0.9914,-0.9913,-0.9913,0,0,-1.0805,-1.0749,-1.0728,-1.0677,-1.0599,-1.0541,-1.0536,-1.0443,-1.0406,-1.0362,-1.0294,-1.0257,-1.0174,-1.0123,-1.0087,-1.012,-1.0069,-1.0105,-1.0152,-1.0138,-1.0145,-1.015,-1.0163,-1.0168,-1.0106,-1.0107,-1.0107,0,-1.0862,-1.0801,-1.0723,-1.0689,-1.0652,-1.057,-1.0548,-1.0502,-1.0411,-1.0388,-1.0363,-1.0259,-1.0202,-1.0157,-1.0166,-1.0138,-1.0131,-1.0116,-1.015,-1.0155,-1.0159,-1.017,-1.0175,-1.0112,-1.0111,-1.0111,-1.011,0,-1.0875,-1.0834,-1.0826,-1.0742,-1.0704,-1.0677,-1.0595,-1.0566,-1.0518,-1.0463,-1.042,-1.0349,-1.0283,-1.0269,-1.0221,-1.0218,-1.0206,-1.0168,-1.0125,-1.0173,-1.0182,-1.0185,-1.0119,-1.0117,-1.0115,-1.0114,0,0,-1.0982,-1.0857,-1.0855,-1.0817,-1.0725,-1.0692,-1.0661,-1.0598,-1.0575,-1.0516,-1.0488,-1.0421,-1.0385,-1.0344,-1.029,-1.0278,-1.0311,-1.0241,-1.0238,-1.0257,-1.0304,-1.0334,-1.0341,-1.0277,-1.0277,-1.0278,-1.0311,0,-1.1018,-1.0958,-1.0888,-1.0853,-1.0815,-1.0737,-1.071,-1.0652,-1.06,-1.056,-1.0502,-1.0456,-1.0412,-1.0387,-1.0372,-1.031,-1.0319,-1.0306,-1.025,-1.0249,-1.0272,-1.0345,-1.0376,-1.0411,-1.0314,-1.0314,-1.0315,0,-1.1051,-1.0997,-1.0959,-1.0872,-1.0854,-1.0831,-1.0768,-1.0731,-1.0663,-1.0626,-1.0582,-1.0525,-1.0488,-1.0451,-1.0401,-1.0394,-1.0367,-1.0334,-1.0333,-1.0325,-1.0285,-1.034,-1.042,-1.0426,-1.0319,-1.0319,-1.0318,0,-1.1134,-1.1052,-1.1018,-1.0988,-1.0886,-1.0872,-1.0829,-1.076,-1.0727,-1.0672,-1.065,-1.0592,-1.056,-1.0516,-1.0445,-1.0424,-1.0403,-1.0359,-1.0371,-1.0373,-1.037,-1.0371,-1.0448,-1.0353,-1.0352,-1.0352,-1.0352,0,-1.1181,-1.1161,-1.1055,-1.1034,-1.101,-1.093,-1.0908,-1.0857,-1.0797,-1.0766,-1.0695,-1.0667,-1.0574,-1.0535,-1.0479,-1.0447,-1.0433,-1.0402,-1.0388,-1.0409,-1.0413,-1.039,-1.0386,-1.0354,-1.0353,-1.0353,-1.0353,0,-1.127,-1.1198,-1.1157,-1.1065,-1.1041,-1.1027,-1.0948,-1.0925,-1.087,-1.0832,-1.0818,-1.0731,-1.0682,-1.0607,-1.0535,-1.0498,-1.0475,-1.045,-1.0498,-1.049,-1.0507,-1.0507,-1.0571,-1.0576,-1.0478,-1.0479,-1.048,0,-1.1305,-1.1288,-1.1195,-1.1169,-1.1129,-1.1088,-1.1055,-1.0976,-1.0944,-1.0867,-1.0854,-1.08,-1.0752,-1.0678,-1.0608,-1.0554,-1.0528,-1.0554,-1.0519,-1.0542,-1.0529,-1.0531,-1.053,-1.0563,-1.0564,-1.0565,-1.0566,0,-1.1376,-1.1341,-1.1296,-1.1239,-1.1202,-1.1153,-1.11,-1.1084,-1.0993,-1.0961,-1.0911,-1.0874,-1.0802,-1.075,-1.0686,-1.0641,-1.0589,-1.0578,-1.0578,-1.06,-1.0629,-1.0615,-1.0522,-1.0577,-1.0576,-1.0575,-1.0575,-1.0574,-1.1438,-1.142,-1.1353,-1.1305,-1.1258,-1.1211,-1.1186,-1.1129,-1.1086,-1.1021,-1.0977,-1.093,-1.0864,-1.0773,-1.0732,-1.0694,-1.0671,-1.0671,-1.0671,-1.0673,-1.0681,-1.0635,-1.0682,-1.0681,-1.0681,-1.0681,-1.068,0,-1.1506,-1.1459,-1.1417,-1.1346,-1.131,-1.1265,-1.1205,-1.1177,-1.1137,-1.108,-1.1036,-1.0979,-1.0928,-1.0856,-1.08,-1.0784,-1.0758,-1.0772,-1.0772,-1.0763,-1.0704,-1.071,-1.0793,-1.0793,-1.0793,-1.0793,-1.0793,-1.0793,-1.1537,-1.1505,-1.1463,-1.1407,-1.1359,-1.1313,-1.1283,-1.124,-1.1195,-1.1135,-1.1093,-1.1046,-1.0983,-1.0922,-1.0874,-1.0854,-1.0837,-1.0858,-1.0831,-1.0777,-1.0767,-1.0757,-1.0762,-1.0855,-1.0855,-1.0893,-1.0894,-1.0894]},{"header":{"parameterUnit":"m.s-1","parameterCategory":1,"la1":30.2991,"la2":30.254,"lo1":-89.0895,"lo2":-89.0444,"dy":0.0017,"dx":0.0017,"nx":28,"ny":28,"refTime":"2023-08-25T03:00:00:Z","depth":0,"parameterNumber":3,"parameterNumberName":"V-component_of_WINDS"},"data":[0,0,0,0,0,0,0,0,0,0,0,0,0,0,0,0,0,0,0,0,0,0,0,0,0,0,0,0,0,0,0,0,0,0,0,0,0,0,0,0,0,0,0,0,0,0,0,0,0,0,0,0,0,0,0,0,0,0,1.6914,1.6913,0,1.6873,1.6873,1.6872,1.6885,1.6886,1.6887,1.6888,1.6842,1.684,1.6838,0,0,0,0,0,0,0,0,0,0,0,0,0,1.6998,1.6996,1.6914,1.6913,1.6913,1.6873,1.6873,1.6872,1.6885,1.6886,1.6887,1.6888,1.6842,1.684,1.6837,0,0,0,0,0,0,0,0,0,0,0,0,0,1.6959,1.6996,1.6914,1.6914,1.6914,1.6873,1.6873,1.6872,1.6885,1.6886,1.6887,1.6889,1.6843,1.684,1.6837,1.6792,0,0,1.6828,1.6826,0,0,0,0,0,0,0,0,1.6962,1.6956,1.6915,1.6914,1.6914,1.6886,1.6885,1.6845,1.6884,1.6896,1.6888,1.6889,1.6855,1.6851,1.684,1.679,1.6788,1.6828,1.6826,1.6824,1.6823,0,0,0,0,0,0,0,1.6964,1.6958,1.6897,1.6914,1.6914,1.6915,1.6911,1.6878,1.6868,1.6895,1.6896,1.6891,1.6855,1.6843,1.6839,1.6787,1.6828,1.6825,1.6823,1.6822,1.6695,1.6694,0,0,0,0,0,0,1.6968,1.696,1.6899,1.6896,1.6942,1.6913,1.6908,1.6893,1.6869,1.6866,1.689,1.6892,1.6848,1.6843,1.6838,1.6781,1.6824,1.6821,1.682,1.6697,1.6695,1.6693,0,0,0,0,0,0,1.697,1.6962,1.69,1.6929,1.6921,1.691,1.6893,1.6892,1.688,1.6865,1.6863,1.688,1.6849,1.6842,1.6803,1.678,1.682,1.6817,1.6698,1.6696,1.6694,1.6669,0,0,0,0,0,0,1.6972,1.6963,1.6946,1.6928,1.6919,1.6868,1.6892,1.689,1.6875,1.6877,1.6855,1.6853,1.6849,1.6808,1.68,1.6776,1.6815,1.67,1.6697,1.6695,1.6672,1.6666,1.6661,0,0,0,0,0,1.6975,1.694,1.6946,1.6938,1.6899,1.6866,1.6861,1.6859,1.6874,1.6856,1.6846,1.6853,1.6784,1.6803,1.6795,1.677,1.6702,1.6698,1.6695,1.6674,1.6667,1.6661,0,0,0,0,0,0,1.6955,1.6938,1.6944,1.6903,1.6886,1.6869,1.6846,1.6852,1.683,1.6832,1.683,1.6824,1.6784,1.6774,1.6795,1.6724,1.6745,1.674,1.6732,1.6725,1.672,1.6722,1.6812,0,0,0,0,0,1.6946,1.6922,1.6909,1.6873,1.6865,1.6857,1.6843,1.6843,1.6825,1.6818,1.6805,1.6786,1.676,1.6742,1.6718,1.6671,1.6665,1.665,1.6645,1.664,1.6635,1.6607,1.6599,1.6682,1.6682,1.6682,0,0,1.6927,1.6915,1.69,1.6869,1.6856,1.683,1.6851,1.6823,1.6803,1.6813,1.6775,1.6765,1.6744,1.67,1.668,1.669,1.6611,1.6636,1.6633,1.6629,1.6603,1.6595,1.6588,1.668,1.668,1.668,0,0,1.6877,1.6867,1.6836,1.6823,1.6804,1.6799,1.6791,1.6773,1.6767,1.673,1.6736,1.6712,1.6668,1.6651,1.6637,1.6582,1.6587,1.6574,1.6546,1.6519,1.6512,1.6506,1.6484,1.6476,1.657,1.657,1.657,0,1.6855,1.6817,1.6819,1.679,1.6775,1.6785,1.6752,1.6739,1.6712,1.6701,1.6713,1.6657,1.6643,1.6595,1.6582,1.6571,1.656,1.6575,1.6514,1.6508,1.6502,1.6481,1.6473,1.6568,1.6568,1.6568,1.6568,0,1.679,1.6763,1.674,1.6715,1.6698,1.6667,1.6662,1.6645,1.6647,1.664,1.66,1.6585,1.6556,1.6546,1.6547,1.6497,1.6503,1.6515,1.6535,1.6493,1.6472,1.6464,1.6566,1.6566,1.6567,1.6567,0,0,1.6724,1.6701,1.6692,1.668,1.666,1.6639,1.6608,1.6581,1.6565,1.6547,1.6519,1.6481,1.6491,1.6476,1.6475,1.6452,1.6406,1.6466,1.6465,1.6453,1.6347,1.6337,1.6327,1.6411,1.6409,1.6408,1.6348,0,1.6671,1.6618,1.6619,1.6568,1.6543,1.6552,1.6525,1.6508,1.6502,1.6478,1.647,1.6442,1.6459,1.6449,1.6427,1.6416,1.6384,1.6421,1.6382,1.638,1.6384,1.6317,1.6306,1.625,1.634,1.6339,1.6338,0,1.6602,1.6582,1.6529,1.6512,1.6501,1.6477,1.6451,1.643,1.6411,1.6407,1.639,1.6393,1.6359,1.6383,1.6335,1.636,1.6345,1.6337,1.6335,1.6328,1.6354,1.6306,1.6232,1.6223,1.6326,1.6327,1.6328,0,1.6556,1.6516,1.6479,1.6469,1.6448,1.6431,1.6421,1.6404,1.6387,1.6365,1.6354,1.6328,1.6313,1.6292,1.6287,1.6306,1.6239,1.6263,1.6232,1.6232,1.6215,1.6216,1.6135,1.6211,1.6211,1.6211,1.6211,0,1.6495,1.6461,1.6458,1.6435,1.6397,1.6398,1.636,1.6352,1.6337,1.6311,1.6318,1.6293,1.629,1.6264,1.626,1.6219,1.6213,1.6208,1.6206,1.6205,1.6205,1.6192,1.6195,1.6209,1.6209,1.621,1.621,0,1.6436,1.6433,1.6392,1.6377,1.6372,1.6345,1.633,1.6307,1.6302,1.6269,1.6261,1.6252,1.6221,1.6215,1.6179,1.6176,1.6127,1.6132,1.6134,1.6133,1.6102,1.6103,1.6007,1.5993,1.6081,1.608,1.6079,0,1.6395,1.637,1.6352,1.6336,1.6325,1.6299,1.6283,1.6283,1.6265,1.6241,1.622,1.6191,1.6167,1.6118,1.6106,1.6078,1.608,1.6048,1.6075,1.6074,1.6076,1.6076,1.6072,1.6042,1.6041,1.604,1.604,0,1.6323,1.6323,1.6299,1.6275,1.6256,1.6236,1.6218,1.6204,1.6201,1.6181,1.615,1.6132,1.6095,1.6065,1.6037,1.6025,1.603,1.6032,1.6022,1.6019,1.602,1.6016,1.6116,1.6033,1.6034,1.6034,1.6034,1.6035,1.627,1.6247,1.623,1.6204,1.619,1.6173,1.615,1.6142,1.6117,1.6088,1.609,1.6055,1.6036,1.5999,1.5986,1.5958,1.5968,1.5955,1.5952,1.5948,1.5943,1.6028,1.5953,1.5954,1.5954,1.5954,1.5954,0,1.6195,1.6185,1.6161,1.6135,1.6114,1.6124,1.6104,1.6085,1.6055,1.6038,1.6014,1.5978,1.5949,1.5936,1.5907,1.5887,1.5888,1.5878,1.5878,1.5875,1.5938,1.5947,1.5878,1.5878,1.5878,1.5878,1.5878,1.5878,1.6153,1.6114,1.6112,1.6066,1.6056,1.6024,1.6011,1.5994,1.598,1.594,1.5916,1.5909,1.5892,1.5862,1.5835,1.5832,1.5819,1.5807,1.5805,1.5863,1.5871,1.5878,1.5886,1.5805,1.5805,1.5744,1.5743,1.5743]}]]